Weather History for Oceanside Mcolf Camp Pendleto, CA

Change the Weather History Date:

Thursday, March 20, 2014

  Actual Average Record
Temperature  
Mean Temperature 58 °F -  
Max Temperature 66 °F - - ()
Min Temperature 50 °F - - ()
Degree Days  
Heating Degree Days 7    
Growing Degree Days 8 (Base 50)    
Moisture  
Dew Point 52 °F    
Average Humidity 80    
Maximum Humidity 93    
Minimum Humidity 66    
Precipitation  
Precipitation 0.00 in - - ()
Sea Level Pressure  
Sea Level Pressure 30.16 in    
Wind  
Wind Speed 6 mph (NNW)    
Max Wind Speed 12 mph    
Max Gust Speed -    
Visibility 6 miles    
Events      
T = Trace of Precipitation, MM = Missing Value Source: NWS Daily Summary

Daily Weather History Graph

Daily Weather History Graph

Search for Another Location

Airport:

Trip Planner

Search our weather history database for the weather conditions in past years. The results will help you decide how hot, cold, wet, or windy it might be!

Date:

Astronomy

Mar. 20, 2014 Rise Set
Actual Time 6:53 AM PDT 7:01 PM PDT
Civil Twilight 6:28 AM PDT 7:26 PM PDT
Nautical Twilight 5:59 AM PDT 7:55 PM PDT
Astronomical Twilight 5:30 AM PDT 8:24 PM PDT
Moon 11:12 PM PDT (3/20) 9:14 AM PDT (3/20)
Length of Visible Light 12h 57m
Length of Day
12h 08m
Waning Gibbous, 83% of the Moon is Illuminated
Mar 20
Waning Gibbous
Mar 23
Last Quarter
Mar 30
New
Apr 7
First Quarter
Apr 15
Full

Hourly Weather History & Observations

Time (PDT) Temp. Dew Point Humidity Pressure Visibility Wind Dir Wind Speed Gust Speed Precip Events Conditions
12:56 AM 54.0 °F 50.0 °F 86% 30.31 in 6.0 mi NE 4.6 mph - N/A   Clear
1:56 AM 52.0 °F 50.0 °F 93% 30.31 in 6.0 mi NE 6.9 mph - N/A   Clear
2:56 AM 52.0 °F 48.0 °F 86% 30.28 in 7.0 mi NE 8.1 mph - N/A   Clear
3:56 AM 52.0 °F 45.0 °F 77% 30.27 in 8.0 mi ENE 4.6 mph - N/A   Clear
4:56 AM 51.1 °F 46.0 °F 83% 30.27 in 8.0 mi NNE 4.6 mph - N/A   Clear
5:30 AM 52.0 °F 48.0 °F 86% 30.01 in 7.0 mi Calm Calm - N/A   Scattered Clouds
5:40 AM 53.1 °F 48.9 °F 86% 30.01 in 7.0 mi Calm Calm - N/A   Mostly Cloudy
5:49 AM 51.1 °F 46.9 °F 86% 30.01 in 7.0 mi NE 3.5 mph - N/A   Scattered Clouds
5:56 AM 50.0 °F 46.9 °F 89% 30.27 in 7.0 mi NE 5.8 mph - N/A   Scattered Clouds
6:19 AM 51.1 °F 46.9 °F 86% 30.02 in 7.0 mi NNE 4.6 mph - N/A   Mostly Cloudy
6:56 AM 53.1 °F 48.9 °F 86% 30.28 in 6.0 mi NNE 5.8 mph - N/A   Mostly Cloudy
7:07 AM 53.1 °F 48.9 °F 86% 30.03 in 5.0 mi NNE 4.6 mph - N/A   Scattered Clouds
7:56 AM 53.1 °F 48.9 °F 86% 30.28 in 5.0 mi NNE 3.5 mph - N/A   Clear
8:56 AM 60.1 °F 55.0 °F 83% 30.28 in 5.0 mi NW 5.8 mph - N/A   Haze
9:56 AM 62.1 °F 55.9 °F 80% 30.28 in 6.0 mi West 6.9 mph - N/A   Haze
10:56 AM 63.0 °F 54.0 °F 72% 30.28 in 6.0 mi West 5.8 mph - N/A   Haze
11:56 AM 63.0 °F 54.0 °F 72% 30.27 in 5.0 mi WSW 6.9 mph - N/A   Haze
12:56 PM 63.0 °F 55.0 °F 75% 30.25 in 6.0 mi WSW 4.6 mph - N/A   Haze
1:56 PM 64.9 °F 55.0 °F 70% 30.23 in 6.0 mi West 6.9 mph - N/A   Haze
2:56 PM 66.9 °F 55.0 °F 66% 30.22 in 7.0 mi West 10.4 mph - N/A   Clear
3:40 PM 66.9 °F 55.0 °F 66% 29.95 in 6.0 mi West 11.5 mph - N/A   Haze
3:56 PM 64.9 °F 54.0 °F 68% 30.21 in 7.0 mi West 10.4 mph - N/A   Mostly Cloudy
4:05 PM 64.9 °F 54.0 °F 68% 29.95 in 7.0 mi West 10.4 mph - N/A   Partly Cloudy
4:56 PM 64.0 °F 54.0 °F 70% 30.20 in 6.0 mi West 10.4 mph - N/A   Haze
5:40 PM 64.0 °F 54.0 °F 70% 29.94 in 7.0 mi WNW 6.9 mph - N/A   Scattered Clouds
5:56 PM 64.0 °F 54.0 °F 70% 30.19 in 6.0 mi WNW 6.9 mph - N/A   Haze
6:56 PM 61.0 °F 55.0 °F 81% 30.20 in 6.0 mi West 10.4 mph - N/A   Haze
7:56 PM 59.0 °F 53.1 °F 81% 30.20 in 7.0 mi Variable 3.5 mph - N/A   Partly Cloudy
8:18 PM 60.1 °F 53.1 °F 78% 29.95 in 7.0 mi WSW 5.8 mph - N/A   Mostly Cloudy
8:47 PM 60.1 °F 54.0 °F 80% 29.96 in 7.0 mi West 8.1 mph - N/A   Scattered Clouds
8:56 PM 60.1 °F 54.0 °F 80% 30.22 in 7.0 mi WNW 5.8 mph - N/A   Partly Cloudy
9:42 PM 55.0 °F 50.0 °F 83% 29.97 in 7.0 mi NNE 4.6 mph - N/A   Mostly Cloudy
9:56 PM 55.9 °F 51.1 °F 84% 30.23 in 7.0 mi North 3.5 mph - N/A   Scattered Clouds
10:56 PM 54.0 °F 50.0 °F 86% 30.24 in 7.0 mi NNE 5.8 mph - N/A   Clear
11:35 PM 55.0 °F 51.1 °F 86% 29.98 in 7.0 mi NE 6.9 mph - N/A   Mostly Cloudy
11:56 PM 55.9 °F 52.0 °F 87% 30.23 in 7.0 mi NE 4.6 mph - N/A   Overcast